Hourly Data Report for October 06, 2015

All times are specified in Local Standard Time (LST). Add 1 hour to adjust for Daylight Saving Time where and when it is observed.

POND INLET A
NUNAVUT

72°41'22.000" N
77°58'08.000" W
61.60 m
2403206
71095
YIO

Download Data

Hourly Data (October 2015)
Hourly Data Report for October 6, 2015
Temp Definition
°C
Dew Point Temp Definition
°C
Rel Hum Definition
%
Wind Dir Definition
10's deg

Wind Spd Definition
km/h
Visibility Definition
km
Stn Press Definition
kPa
Hmdx Definition


Wind Chill Definition


Weather Definition


TIME
00:00 Legend Double Dagger -2.7 -4.1 90 6 8 16.1 99.98   -6 Snow
01:00 Legend Double Dagger -2.5 -4.2 88 9 4 16.1 99.99   -4 Snow
02:00 Legend Double Dagger -2.3 -3.9 89 19 4 12.9 99.99   -4 Snow
03:00 Legend Double Dagger -2.5 -3.3 94 22 8 9.7 99.99   -6 Snow
04:00 Legend Double Dagger -2.9 -3.3 97 22 5 16.1 100.00   -5 Snow
05:00 Legend Double Dagger -1.8 -2.1 98 16 4 2.0 100.00   -3 Snow
06:00 Legend Double Dagger -2.4 -2.8 97 8 5 12.9 100.00   -4 Snow
07:00 Legend Double Dagger -1.6 -2.0 97 6 8 4.0 99.99   -5 Snow
08:00 Legend Double Dagger -1.7 -2.0 98 4 9 16.1 99.99   -5 Snow
09:00 Legend Double Dagger -1.6 -2.0 97 6 8 16.1 100.00   -5 Snow
10:00 Legend Double Dagger -1.4 -2.0 96 5 4 16.1 99.97   -3 LegendNANA
11:00 Legend Double Dagger -1.3 -1.7 97 6 11 16.1 99.95   -5 LegendNANA
12:00 Legend Double Dagger -1.1 -1.9 94 6 8 16.1 99.92   -4 LegendNANA
13:00 Legend Double Dagger -1.4 -2.5 92 8 5 16.1 99.89   -3 LegendNANA
14:00 Legend Double Dagger -1.3 -4.8 77 LegendMM 4 16.1 99.88   -3 LegendNANA
15:00 Legend Double Dagger -2.7 -6.0 78 16 17 16.1 99.86   -8 LegendNANA
16:00 Legend Double Dagger -3.1 -6.8 76 16 21 16.1 99.84   -9 LegendNANA
17:00 Legend Double Dagger -2.6 -6.6 74 17 21 16.1 99.78   -9 LegendNANA
18:00 Legend Double Dagger -3.9 -7.7 75 17 22 16.1 99.72   -10 LegendNANA
19:00 Legend Double Dagger -4.6 -9.1 71 15 18 16.1 99.69   -11 LegendNANA
20:00 Legend Double Dagger -5.9 -10.0 73 15 21 16.1 99.64   -13 LegendNANA
21:00 Legend Double Dagger -5.3 -9.9 70 15 22 16.1 99.58   -12 LegendNANA
22:00 Legend Double Dagger -6.4 -10.3 74 15 18 16.1 99.53   -13 LegendNANA
23:00 Legend Double Dagger -3.2 -7.6 72 16 17 16.1 99.49   -9 LegendNANA

Notes on Data Quality.

Legend

  • E = Estimated
  • M = Missing
  • NA = Not Available
  • ‡ = Partner data that is not subject to review by the National Climate Archives
Date modified: